EW4529 Weather Reports


time (UTC)temp
F
wind
direction
speed
knots
gust
knots
rain 1hr
in
rain 24hr
in
rain mn
in
humidity
%
barometer
mb
20260504160322 73 49 0.9 6.1 0.00 0.00 0.00 33 1013.4
20260504150320 68 250 0.0 7.0 0.00 0.00 0.00 41 1013.9
20260504141318 63 56 0.9 3.5 0.00 0.00 0.00 56 1014.0
20260504140314 63 269 0.9 7.0 0.00 0.00 0.00 55 1014.2
20260504130317 60 248 1.7 4.3 0.00 0.00 0.00 63 1014.6
20260504110312 45 96 0.0 0.0 0.00 0.00 0.00 89 1015.1
20260504100315 43 146 0.0 0.0 0.00 0.00 0.00 86 1015.2
20260504081309 42 261 0.0 0.0 0.00 0.00 0.00 78 1015.0
20260504080325 43 261 0.0 0.0 0.00 0.00 0.00 76 1014.9
20260504050323 47 143 0.0 0.0 0.00 0.00 0.00 62 1014.7
20260504045321 47 143 0.0 0.0 0.00 0.00 0.00 61 1014.7
20260504044341 47 143 0.0 0.0 0.00 0.00 0.00 60 1014.6
20260504043323 48 231 0.0 0.0 0.00 0.00 0.00 60 1014.6
20260504042340 48 290 0.0 0.0 0.00 0.00 0.00 58 1014.4
20260504041320 48 134 0.0 0.9 0.00 0.00 0.00 58 1014.4
20260504040314 48 137 0.0 0.0 0.00 0.00 0.00 58 1014.2
20260504035315 48 256 0.0 1.7 0.00 0.00 0.00 58 1014.2
20260504034316 48 135 0.0 0.9 0.00 0.00 0.00 58 1014.2
20260504033316 48 305 0.0 0.9 0.00 0.00 0.00 59 1014.1
20260504032316 48 290 0.0 0.9 0.00 0.00 0.00 59 1014.1
20260504031317 48 224 0.0 0.0 0.00 0.00 0.00 59 1014.1
20260504030313 48 226 0.0 0.9 0.00 0.00 0.00 60 1014.0
20260504025310 48 320 0.0 0.0 0.00 0.00 0.00 59 1014.1
20260504024314 48 320 0.0 1.7 0.00 0.00 0.00 59 1014.2
20260504023314 48 120 0.0 0.0 0.00 0.00 0.00 59 1014.2
20260504022338 48 120 0.0 0.0 0.00 0.00 0.00 60 1014.1
20260504021319 48 119 0.0 0.0 0.00 0.00 0.00 60 1014.1
20260504020327 48 119 0.0 0.9 0.00 0.00 0.00 60 1014.1
20260504015350 48 122 0.0 0.0 0.00 0.00 0.00 59 1014.0
20260504014350 49 122 0.0 0.0 0.00 0.00 0.00 59 1014.0
20260504013325 49 122 0.0 0.0 0.00 0.00 0.00 58 1013.9
20260504012327 49 122 0.0 0.0 0.00 0.00 0.00 57 1013.8
20260504011312 50 122 0.0 0.0 0.00 0.00 0.00 55 1013.7
20260504010309 50 122 0.0 0.0 0.00 0.00 0.00 54 1013.5
20260504005311 51 122 0.0 0.0 0.00 0.00 0.00 53 1013.4
20260504004311 52 122 0.0 0.0 0.00 0.00 0.00 52 1013.3
20260504003310 52 122 0.0 0.0 0.00 0.00 0.00 50 1013.1
20260504002313 53 122 0.0 0.0 0.00 0.00 0.00 47 1013.0
20260504001317 54 124 0.0 0.0 0.00 0.00 0.00 45 1013.0
20260504000324 55 134 0.0 0.9 0.00 0.00 0.00 43 1012.9
20260503235327 56 110 0.0 1.7 0.00 0.00 0.00 41 1012.8
20260503234336 57 269 0.0 0.9 0.00 0.00 0.00 41 1012.8
20260503233329 57 17 0.9 4.3 0.00 0.00 0.00 38 1012.6
20260503232312 57 122 0.9 4.3 0.00 0.00 0.00 38 1012.6
20260503231330 58 236 0.0 3.5 0.00 0.00 0.00 37 1012.6
20260503230324 58 58 0.9 4.3 0.00 0.00 0.00 36 1012.5
20260503225326 59 265 0.0 5.2 0.00 0.00 0.00 36 1012.5
20260503224325 59 35 0.0 4.3 0.00 0.00 0.00 35 1012.4
20260503223317 59 10 0.9 4.3 0.00 0.00 0.00 33 1012.4
20260503222338 60 259 0.9 3.5 0.00 0.00 0.00 34 1012.4
20260503221320 60 266 1.7 5.2 0.00 0.00 0.00 33 1012.4
20260503220341 60 150 0.9 5.2 0.00 0.00 0.00 34 1012.3
20260503215323 60 115 0.9 5.2 0.00 0.00 0.00 33 1012.3
20260503214319 61 36 0.9 7.0 0.00 0.00 0.00 32 1012.4
20260503213313 62 324 0.9 5.2 0.00 0.00 0.00 32 1012.3
20260503212312 62 148 0.9 6.1 0.00 0.00 0.00 32 1012.3
20260503211325 62 116 0.9 6.1 0.00 0.00 0.00 31 1012.3
20260503210315 63 359 0.9 7.0 0.00 0.00 0.00 31 1012.4
20260503205316 62 88 3.5 7.8 0.00 0.00 0.00 30 1012.2
20260503204349 62 252 1.7 6.1 0.00 0.00 0.00 32 1012.4
20260503203344 61 340 2.6 7.8 0.00 0.00 0.00 33 1012.4
20260503202346 61 352 3.5 7.0 0.00 0.00 0.00 32 1012.6
20260503201316 61 11 1.7 7.0 0.00 0.00 0.00 31 1012.6
20260503200315 62 266 2.6 7.8 0.00 0.00 0.00 33 1012.6
20260503195317 62 77 2.6 8.7 0.00 0.00 0.00 31 1012.6
20260503194331 62 227 1.7 9.6 0.00 0.00 0.00 32 1012.8
20260503193323 62 319 1.7 7.8 0.00 0.00 0.00 30 1012.8
20260503192320 62 26 1.7 7.8 0.00 0.00 0.00 32 1012.9
20260503191318 62 345 1.7 6.1 0.00 0.00 0.00 32 1013.0
20260503190311 61 116 2.6 10.4 0.00 0.00 0.00 32 1013.0
20260503185332 60 241 1.7 6.1 0.00 0.00 0.00 33 1013.0
20260503184331 60 150 1.7 6.1 0.00 0.00 0.00 34 1013.4
20260503183351 59 56 3.5 8.7 0.00 0.00 0.00 33 1013.2
20260503182333 60 352 1.7 6.1 0.00 0.00 0.00 34 1013.4
20260503180314 59 268 0.9 6.1 0.00 0.00 0.00 35 1013.4
20260503175316 58 349 2.6 7.0 0.00 0.00 0.00 33 1013.6
20260503174315 59 76 1.7 6.1 0.00 0.00 0.00 37 1013.8
20260503173313 57 302 1.7 7.8 0.00 0.00 0.00 38 1013.8
20260503172317 56 58 1.7 4.3 0.00 0.00 0.00 37 1013.8
20260503171313 57 33 2.6 12.2 0.00 0.00 0.00 37 1013.9
20260503170337 57 40 1.7 7.8 0.00 0.00 0.00 39 1013.8